TimeCST,TemperatureF,Dew PointF,Humidity,Sea Level PressureIn,VisibilityMPH,Wind Direction,Wind SpeedMPH,Gust SpeedMPH,PrecipitationIn,Events,Conditions,WindDirDegrees,DateUTC
12:55 AM,52.5,52.5,100,29.97,10.0,SE,4.6,-,N/A,,Overcast,130,2012-12-07 06:55:00
1:15 AM,51.8,51.8,100,29.97,10.0,ESE,3.5,-,N/A,,Light Drizzle,120,2012-12-07 07:15:00
1:25 AM,51.8,51.8,100,29.97,10.0,ESE,4.6,-,N/A,,Overcast,120,2012-12-07 07:25:00
1:35 AM,51.8,51.8,100,29.97,10.0,ESE,3.5,-,N/A,,Light Drizzle,120,2012-12-07 07:35:00
1:44 AM,51.8,51.8,100,29.97,10.0,SE,4.6,-,N/A,,Overcast,130,2012-12-07 07:44:00
1:55 AM,52.9,52.9,100,29.96,10.0,ESE,4.6,-,0.00,,Overcast,120,2012-12-07 07:55:00
2:10 AM,53.6,53.6,100,29.96,10.0,SE,4.6,-,N/A,,Light Drizzle,130,2012-12-07 08:10:00
2:21 AM,53.6,53.6,100,29.97,10.0,SSE,3.5,-,N/A,,Overcast,150,2012-12-07 08:21:00
2:28 AM,53.6,53.6,100,29.96,10.0,Calm,Calm,-,N/A,,Light Drizzle,0,2012-12-07 08:28:00
2:46 AM,53.6,53.6,100,29.96,10.0,Calm,Calm,-,N/A,,Overcast,0,2012-12-07 08:46:00
2:50 AM,53.6,53.6,100,29.96,9.0,Calm,Calm,-,N/A,,Light Drizzle,0,2012-12-07 08:50:00
2:55 AM,53.6,53.6,100,29.95,9.0,Calm,Calm,-,0.01,,Light Drizzle,0,2012-12-07 08:55:00
2:59 AM,53.6,53.6,100,29.95,9.0,Calm,Calm,-,N/A,,Mostly Cloudy,0,2012-12-07 08:59:00
3:32 AM,53.6,53.6,100,29.95,10.0,SSE,4.6,-,N/A,,Light Drizzle,150,2012-12-07 09:32:00
3:45 AM,53.6,53.6,100,29.95,10.0,SSE,3.5,-,N/A,,Scattered Clouds,150,2012-12-07 09:45:00
3:55 AM,53.8,53.8,100,29.94,10.0,SSE,4.6,-,0.00,,Mostly Cloudy,150,2012-12-07 09:55:00
4:55 AM,55.8,55.0,97,29.94,10.0,South,8.1,-,N/A,,Scattered Clouds,180,2012-12-07 10:55:00
5:55 AM,55.8,54.0,94,29.95,10.0,South,11.5,-,N/A,,Mostly Cloudy,190,2012-12-07 11:55:00
6:55 AM,54.9,53.6,96,29.96,10.0,South,9.2,-,N/A,,Scattered Clouds,190,2012-12-07 12:55:00
7:26 AM,55.4,53.6,94,29.96,10.0,South,9.2,-,N/A,,Overcast,190,2012-12-07 13:26:00
7:55 AM,55.8,53.8,93,29.96,10.0,South,10.4,-,N/A,,Overcast,180,2012-12-07 13:55:00
8:55 AM,56.5,54.5,93,29.96,10.0,South,12.7,-,N/A,,Overcast,190,2012-12-07 14:55:00
9:06 AM,57.2,55.4,94,29.96,10.0,South,11.5,-,N/A,,Light Drizzle,190,2012-12-07 15:06:00
9:08 AM,57.2,55.4,94,29.96,10.0,South,11.5,-,N/A,,Light Drizzle,190,2012-12-07 15:08:00
9:17 AM,57.2,55.4,94,29.96,10.0,South,13.8,-,N/A,,Mostly Cloudy,180,2012-12-07 15:17:00
9:30 AM,59.0,55.4,88,29.96,10.0,South,11.5,19.6,N/A,,Mostly Cloudy,190,2012-12-07 15:30:00
9:38 AM,59.0,55.4,88,29.95,10.0,South,15.0,-,N/A,,Mostly Cloudy,190,2012-12-07 15:38:00
9:55 AM,59.0,56.7,92,29.95,10.0,SSW,15.0,23.0,0.00,,Overcast,200,2012-12-07 15:55:00
10:55 AM,60.4,58.5,93,29.93,10.0,SSW,15.0,19.6,N/A,,Overcast,200,2012-12-07 16:55:00
11:55 AM,61.0,59.0,93,29.91,10.0,SSW,12.7,-,N/A,,Overcast,210,2012-12-07 17:55:00
12:05 PM,60.8,59.0,94,29.91,10.0,SSW,15.0,-,N/A,,Overcast,210,2012-12-07 18:05:00
12:23 PM,60.8,59.0,94,29.90,10.0,SW,11.5,-,N/A,,Light Drizzle,220,2012-12-07 18:23:00
12:24 PM,60.8,59.0,94,29.90,10.0,SW,11.5,-,N/A,,Light Drizzle,220,2012-12-07 18:24:00
12:27 PM,60.8,59.0,94,29.90,10.0,SW,11.5,-,N/A,,Overcast,220,2012-12-07 18:27:00
12:29 PM,60.8,60.8,100,29.90,9.0,SW,9.2,-,N/A,,Light Drizzle,220,2012-12-07 18:29:00
12:40 PM,60.8,60.8,100,29.90,7.0,SW,8.1,-,N/A,,Light Drizzle,220,2012-12-07 18:40:00
12:50 PM,59.0,59.0,100,29.89,4.0,SW,8.1,-,N/A,,Drizzle,220,2012-12-07 18:50:00
12:52 PM,59.0,59.0,100,29.90,4.0,SSW,8.1,-,N/A,,Drizzle,210,2012-12-07 18:52:00
12:54 PM,59.0,59.0,100,29.89,4.0,SSW,8.1,-,N/A,,Light Drizzle,210,2012-12-07 18:54:00
12:55 PM,59.5,59.5,100,29.89,4.0,SSW,9.2,-,0.01,,Light Drizzle,210,2012-12-07 18:55:00
12:57 PM,59.0,59.0,100,29.89,4.0,SSW,8.1,-,N/A,,Light Drizzle,210,2012-12-07 18:57:00
1:03 PM,59.0,59.0,100,29.89,6.0,SSW,6.9,-,N/A,,Light Drizzle,200,2012-12-07 19:03:00
1:07 PM,59.0,59.0,100,29.88,7.0,SSW,6.9,-,N/A,,Light Drizzle,200,2012-12-07 19:07:00
1:11 PM,59.0,59.0,100,29.88,10.0,South,5.8,-,N/A,,Overcast,190,2012-12-07 19:11:00
1:25 PM,59.0,59.0,100,29.88,10.0,South,8.1,-,N/A,,Light Drizzle,190,2012-12-07 19:25:00
1:46 PM,59.0,59.0,100,29.88,8.0,South,8.1,-,N/A,,Light Drizzle,190,2012-12-07 19:46:00
1:49 PM,59.0,59.0,100,29.88,10.0,SSW,6.9,-,N/A,,Overcast,200,2012-12-07 19:49:00
1:55 PM,59.4,59.4,100,29.88,8.0,SSW,6.9,-,0.01,,Light Drizzle,200,2012-12-07 19:55:00
2:00 PM,59.0,59.0,100,29.87,7.0,SSW,8.1,-,N/A,,Light Drizzle,200,2012-12-07 20:00:00
2:02 PM,59.0,59.0,100,29.87,7.0,South,6.9,-,N/A,,Light Drizzle,190,2012-12-07 20:02:00
2:06 PM,59.0,59.0,100,29.87,10.0,SSW,6.9,-,N/A,,Overcast,200,2012-12-07 20:06:00
2:55 PM,59.9,59.9,100,29.88,10.0,West,6.9,-,0.00,,Overcast,280,2012-12-07 20:55:00
3:55 PM,60.1,60.1,100,29.88,10.0,Calm,Calm,-,N/A,,Overcast,0,2012-12-07 21:55:00
4:55 PM,58.8,58.8,100,29.88,10.0,SW,3.5,-,N/A,,Mostly Cloudy,220,2012-12-07 22:55:00
5:33 PM,59.0,59.0,100,29.89,10.0,SSW,4.6,-,N/A,,Overcast,200,2012-12-07 23:33:00
5:55 PM,58.8,58.8,100,29.90,10.0,South,4.6,-,N/A,,Mostly Cloudy,190,2012-12-07 23:55:00
6:55 PM,58.1,58.1,100,29.90,10.0,SSW,5.8,-,N/A,,Scattered Clouds,200,2012-12-08 00:55:00
7:24 PM,57.2,57.2,100,29.91,10.0,SSW,5.8,-,N/A,,Mostly Cloudy,210,2012-12-08 01:24:00
7:55 PM,57.2,57.2,100,29.92,10.0,SSW,5.8,-,N/A,,Mostly Cloudy,200,2012-12-08 01:55:00
8:17 PM,57.2,57.2,100,29.92,10.0,SSW,5.8,-,N/A,,Mostly Cloudy,200,2012-12-08 02:17:00
8:55 PM,57.7,57.7,100,29.91,10.0,South,8.1,-,N/A,,Partly Cloudy,190,2012-12-08 02:55:00
9:47 PM,57.2,57.2,100,29.91,10.0,SSW,5.8,-,N/A,,Mostly Cloudy,200,2012-12-08 03:47:00
9:55 PM,57.0,57.0,100,29.91,10.0,South,5.8,-,N/A,,Overcast,190,2012-12-08 03:55:00
10:30 PM,57.2,57.2,100,29.91,10.0,South,4.6,-,N/A,,Overcast,190,2012-12-08 04:30:00
10:45 PM,59.0,59.0,100,29.90,10.0,South,6.9,-,N/A,,Light Drizzle,180,2012-12-08 04:45:00
10:54 PM,59.0,59.0,100,29.90,10.0,South,5.8,-,N/A,,Overcast,180,2012-12-08 04:54:00
10:55 PM,58.8,58.8,100,29.90,10.0,South,5.8,-,0.00,,Overcast,180,2012-12-08 04:55:00
11:55 PM,59.7,59.7,100,29.88,10.0,SSW,9.2,-,N/A,,Overcast,200,2012-12-08 05:55:00